Weather History for Shenandoah, IA

Change the Weather History Date:

Monday, November 4, 2013

  Actual Average Record
Temperature  
Mean Temperature 50 °F -  
Max Temperature 59 °F 52 °F 77 °F (2001)
Min Temperature 41 °F 32 °F 2 °F (1991)
Degree Days  
Heating Degree Days 15    
Moisture  
Dew Point 41 °F    
Average Humidity 67    
Maximum Humidity 87    
Minimum Humidity 54    
Precipitation  
Precipitation 0.00 in - - ()
Sea Level Pressure  
Sea Level Pressure 29.97 in    
Wind  
Wind Speed 12 mph (SSE)    
Max Wind Speed 17 mph    
Max Gust Speed 24 mph    
Visibility 10 miles    
Events      
Averages and records for this station are not official NWS values.
T = Trace of Precipitation, MM = Missing Value Source: NWS Daily Summary

Daily Weather History Graph

Daily Weather History Graph

Search for Another Location

Airport:

Trip Planner

Search our weather history database for the weather conditions in past years. The results will help you decide how hot, cold, wet, or windy it might be!

Date:

Astronomy

Nov. 04, 2013 Rise Set
Actual Time 6:55 AM CST 5:14 PM CST
Civil Twilight 6:27 AM CST 5:42 PM CST
Nautical Twilight 5:54 AM CST 6:15 PM CST
Astronomical Twilight 5:22 AM CST 6:47 PM CST
Moon 8:07 AM CST (11/4) 6:19 PM CST (11/4)
Length of Visible Light 11h 15m
Length of Day
10h 18m
New Moon, 2% of the Moon is Illuminated
Nov 4
New Moon
Nov 9
First Quarter
Nov 17
Full
Nov 25
Last Quarter
Dec 2
New

Hourly Weather History & Observations

Time (CST) Temp. Windchill Dew Point Humidity Pressure Visibility Wind Dir Wind Speed Gust Speed Precip Events Conditions
12:15 AM 53.6 °F - 39.2 °F 58% 29.85 in 10.0 mi SSE 16.1 mph 23.0 mph N/A   Overcast
12:55 AM 53.6 °F - 39.2 °F 58% 29.85 in 10.0 mi SSE 16.1 mph 23.0 mph N/A   Overcast
1:15 AM 53.6 °F - 39.2 °F 58% 29.85 in 10.0 mi SSE 12.7 mph 21.9 mph N/A   Overcast
1:35 AM 53.6 °F - 39.2 °F 58% 29.85 in 10.0 mi SSE 10.4 mph 19.6 mph N/A   Overcast
1:55 AM 53.6 °F - 39.2 °F 58% 29.84 in 10.0 mi SSE 16.1 mph - N/A   Overcast
2:15 AM 53.6 °F - 39.2 °F 58% 29.85 in 10.0 mi SSE 11.5 mph 20.7 mph N/A   Partly Cloudy
2:35 AM 53.6 °F - 39.2 °F 58% 29.84 in 10.0 mi SSE 13.8 mph - N/A   Clear
2:55 AM 53.6 °F - 41.0 °F 62% 29.83 in 10.0 mi SSE 15.0 mph 21.9 mph N/A   Clear
3:15 AM 53.6 °F - 41.0 °F 62% 29.83 in 10.0 mi SSE 11.5 mph 24.2 mph N/A   Partly Cloudy
3:35 AM 53.6 °F - 41.0 °F 62% 29.84 in 10.0 mi South 15.0 mph 21.9 mph N/A   Partly Cloudy
3:55 AM 53.6 °F - 41.0 °F 62% 29.84 in 10.0 mi South 17.3 mph - N/A   Mostly Cloudy
4:15 AM 53.6 °F - 41.0 °F 62% 29.84 in 10.0 mi South 16.1 mph 24.2 mph N/A   Mostly Cloudy
4:35 AM 51.8 °F - 42.8 °F 71% 29.85 in 10.0 mi South 15.0 mph - N/A   Overcast
4:55 AM 51.8 °F - 42.8 °F 71% 29.85 in 10.0 mi SSE 12.7 mph 18.4 mph N/A   Mostly Cloudy
5:15 AM 51.8 °F - 42.8 °F 71% 29.85 in 10.0 mi South 13.8 mph 19.6 mph N/A   Mostly Cloudy
5:35 AM 51.8 °F - 42.8 °F 71% 29.85 in 10.0 mi SSE 15.0 mph 20.7 mph N/A   Overcast
5:55 AM 51.8 °F - 42.8 °F 71% 29.84 in 10.0 mi SSE 12.7 mph 20.7 mph N/A   Mostly Cloudy
6:15 AM 51.8 °F - 42.8 °F 71% 29.84 in 10.0 mi South 15.0 mph 21.9 mph N/A   Mostly Cloudy
6:35 AM 50.0 °F - 42.8 °F 76% 29.85 in 10.0 mi South 15.0 mph - N/A   Scattered Clouds
6:55 AM 50.0 °F - 42.8 °F 76% 29.86 in 10.0 mi South 13.8 mph 20.7 mph N/A   Mostly Cloudy
7:15 AM 50.0 °F - 42.8 °F 76% 29.86 in 10.0 mi South 16.1 mph 23.0 mph N/A   Mostly Cloudy
7:35 AM 51.8 °F - 42.8 °F 71% 29.87 in 10.0 mi South 13.8 mph 20.7 mph N/A   Overcast
7:55 AM 51.8 °F - 42.8 °F 71% 29.87 in 10.0 mi South 16.1 mph - N/A   Overcast
8:15 AM 51.8 °F - 42.8 °F 71% 29.88 in 10.0 mi SSE 13.8 mph 23.0 mph N/A   Overcast
8:35 AM 51.8 °F - 42.8 °F 71% 29.89 in 10.0 mi SSE 16.1 mph 24.2 mph N/A   Overcast
8:55 AM 51.8 °F - 42.8 °F 71% 29.89 in 10.0 mi South 17.3 mph - N/A   Overcast
9:15 AM 53.6 °F - 42.8 °F 67% 29.90 in 10.0 mi South 15.0 mph 23.0 mph N/A   Overcast
9:35 AM 53.6 °F - 42.8 °F 67% 29.91 in 10.0 mi SSW 15.0 mph - N/A   Overcast
9:55 AM 53.6 °F - 44.6 °F 72% 29.92 in 10.0 mi SSW 13.8 mph 24.2 mph N/A   Overcast
10:15 AM 55.4 °F - 44.6 °F 67% 29.93 in 10.0 mi SSW 16.1 mph - N/A   Overcast
10:35 AM 55.4 °F - 44.6 °F 67% 29.93 in 10.0 mi SSW 16.1 mph - N/A   Overcast
10:55 AM 55.4 °F - 44.6 °F 67% 29.94 in 10.0 mi SSW 16.1 mph - N/A   Overcast
11:15 AM 55.4 °F - 44.6 °F 67% 29.95 in 10.0 mi SW 13.8 mph - N/A   Overcast
11:35 AM 57.2 °F - 44.6 °F 63% 29.95 in 10.0 mi SW 12.7 mph - N/A   Overcast
11:55 AM 57.2 °F - 44.6 °F 63% 29.96 in 10.0 mi WSW 12.7 mph - N/A   Overcast
12:15 PM 57.2 °F - 44.6 °F 63% 29.96 in 10.0 mi WSW 10.4 mph - N/A   Overcast
12:35 PM 57.2 °F - 44.6 °F 63% 29.95 in 10.0 mi SW 10.4 mph - N/A   Overcast
12:55 PM 59.0 °F - 44.6 °F 59% 29.96 in 10.0 mi WSW 8.1 mph - N/A   Overcast
1:15 PM 59.0 °F - 44.6 °F 59% 29.96 in 10.0 mi West 8.1 mph 15.0 mph N/A   Overcast
1:35 PM 59.0 °F - 44.6 °F 59% 29.96 in 10.0 mi NW 6.9 mph - N/A   Overcast
1:55 PM 59.0 °F - 42.8 °F 55% 29.97 in 10.0 mi NW 10.4 mph - N/A   Overcast
2:15 PM 59.0 °F - 42.8 °F 55% 29.98 in 10.0 mi Variable 8.1 mph 13.8 mph N/A   Overcast
2:35 PM 59.0 °F - 42.8 °F 55% 29.99 in 10.0 mi NW 5.8 mph - N/A   Mostly Cloudy
2:55 PM 59.0 °F - 42.8 °F 55% 30.00 in 10.0 mi WNW 5.8 mph - N/A   Scattered Clouds
3:15 PM 57.2 °F - 42.8 °F 59% 30.00 in 10.0 mi NNW 9.2 mph - N/A   Mostly Cloudy
3:35 PM 57.2 °F - 41.0 °F 55% 30.01 in 10.0 mi North 9.2 mph - N/A   Overcast
3:55 PM 57.2 °F - 41.0 °F 55% 30.01 in 10.0 mi NNW 6.9 mph - N/A   Overcast
4:15 PM 57.2 °F - 41.0 °F 55% 30.02 in 10.0 mi North 6.9 mph - N/A   Overcast
4:35 PM 55.4 °F - 39.2 °F 54% 30.03 in 10.0 mi North 9.2 mph 15.0 mph N/A   Overcast
4:55 PM 55.4 °F - 39.2 °F 54% 30.04 in 10.0 mi North 6.9 mph - N/A   Overcast
5:15 PM 53.6 °F - 39.2 °F 58% 30.05 in 10.0 mi NNE 8.1 mph - N/A   Overcast
5:35 PM 53.6 °F - 39.2 °F 58% 30.06 in 10.0 mi North 9.2 mph - N/A   Overcast
5:55 PM 51.8 °F - 39.2 °F 62% 30.07 in 10.0 mi NNE 8.1 mph - N/A   Overcast
6:15 PM 51.8 °F - 39.2 °F 62% 30.08 in 10.0 mi NE 8.1 mph - N/A   Overcast
6:35 PM 48.2 °F - 39.2 °F 71% 30.09 in 10.0 mi NE 4.6 mph - N/A   Scattered Clouds
6:55 PM 46.4 °F 43.5 °F 37.4 °F 71% 30.10 in 10.0 mi NNE 5.8 mph - N/A   Clear
7:15 PM 44.6 °F 43.1 °F 37.4 °F 76% 30.10 in 10.0 mi NNE 3.5 mph - N/A   Clear
7:35 PM 44.6 °F 43.1 °F 37.4 °F 76% 30.11 in 10.0 mi NNE 3.5 mph - N/A   Scattered Clouds
7:55 PM 44.6 °F 43.1 °F 37.4 °F 76% 30.11 in - NE 3.5 mph - N/A   Mostly Cloudy
8:15 PM 42.8 °F - 37.4 °F 81% 30.12 in 10.0 mi Calm Calm - N/A   Mostly Cloudy
8:35 PM 41.0 °F - 37.4 °F 87% 30.12 in 10.0 mi Calm Calm - N/A   Overcast
8:55 PM 42.8 °F 40.1 °F 37.4 °F 81% 30.13 in 10.0 mi NE 4.6 mph - N/A   Overcast
9:15 PM 42.8 °F 41.1 °F 39.2 °F 87% 30.13 in 10.0 mi NNE 3.5 mph - N/A   Overcast
9:35 PM 42.8 °F - 39.2 °F 87% 30.14 in 10.0 mi Calm Calm - N/A   Overcast
9:55 PM 44.6 °F 41.4 °F 39.2 °F 81% 30.14 in 10.0 mi NNE 5.8 mph - N/A   Overcast
10:15 PM 44.6 °F - 39.2 °F 81% 30.14 in 10.0 mi Calm Calm - N/A   Overcast
10:35 PM 44.6 °F 41.4 °F 41.0 °F 87% 30.14 in 10.0 mi NE 5.8 mph - N/A   Overcast
10:55 PM 44.6 °F 42.2 °F 41.0 °F 87% 30.14 in 10.0 mi NE 4.6 mph - N/A   Overcast
11:15 PM 46.4 °F 45.2 °F 41.0 °F 81% 30.14 in 10.0 mi ENE 3.5 mph - N/A   Overcast
11:35 PM 46.4 °F 42.9 °F 41.0 °F 81% 30.14 in 10.0 mi NE 6.9 mph - N/A   Overcast
11:55 PM 46.4 °F 43.5 °F 41.0 °F 81% 30.14 in 10.0 mi NE 5.8 mph - N/A   Overcast